Stations météo

réclame
Mon MeteoGroup
Åsele, Suède (2254): Température de l'air & dewpoint: 13.12.2018 15:00:00 - 19.12.2018 15:00:00 (CET)Åsele, Suède (2254): Vitesse du vent & gusts: 13.12.2018 15:00:00 - 19.12.2018 15:00:00 (CET)Åsele, Suède (2254): Direction du vent: 13.12.2018 15:00:00 - 19.12.2018 15:00:00 (CET)Åsele, Suède (2254): reduced air pressure: 13.12.2018 15:00:00 - 19.12.2018 15:00:00 (CET)Åsele, Suède (2254): visibility: 13.12.2018 15:00:00 - 19.12.2018 15:00:00 (CET)Åsele, Suède (2254): Quantités de précipitations: 13.12.2018 15:00:00 - 19.12.2018 15:00:00 (CET)
Date & Time tt [°C] td [°C] ff [km/h] ff [knt] fx [km/h] fx [knt] dd ppp [hPa] vv [km] rr [mm]
19.12.2018 15:00:00 - - - - - - - - - -
19.12.2018 14:00:00 -3,1 -3,6 7 4 14 8 ESE 1025,2 6 0,3
19.12.2018 13:00:00 -3,0 -3,7 6 3 16 9 SE 1025,3 7 0,0
19.12.2018 12:00:00 -3,1 -3,8 9 5 16 9 ESE 1025,5 7 0,0
19.12.2018 11:00:00 -3,2 -4,0 7 4 14 8 ESE 1025,8 16 0,0
19.12.2018 10:00:00 -3,3 -4,1 7 4 18 10 ESE 1025,8 38 0,0
19.12.2018 09:00:00 -3,5 -4,2 5 3 14 7 E 1025,7 41 0,0
19.12.2018 08:00:00 -3,3 -3,8 7 4 11 6 E 1025,5 35 0,0
19.12.2018 07:00:00 -3,8 -4,2 4 2 9 5 E 1025,8 31 0,0
19.12.2018 06:00:00 -4,7 -5,2 2 1 4 2 E 1026,0 25 0,0
19.12.2018 05:00:00 -4,3 -4,8 0 0 6 3 N 1025,9 18 0,0
19.12.2018 04:00:00 -4,5 -4,9 0 0 4 2 N 1026,3 16 0,1
19.12.2018 03:00:00 -4,9 -5,4 0 0 3 2 N 1026,4 3,2 0,0
19.12.2018 02:00:00 -4,9 -5,3 0 0 4 2 N 1026,4 29 0,0
19.12.2018 01:00:00 -5,5 -6,0 2 1 7 4 W 1026,5 23 0,0
19.12.2018 00:00:00 -4,9 -5,6 3 2 7 4 ESE 1026,8 45 0,0
18.12.2018 23:00:00 -4,9 -5,3 0 0 6 3 N 1026,7 33 0,0
18.12.2018 22:00:00 -6,0 -6,5 2 1 5 3 SE 1026,8 23 0,0
18.12.2018 21:00:00 -5,2 -5,7 3 1 4 2 ENE 1026,7 29 0,0
18.12.2018 20:00:00 -5,8 -6,4 4 2 4 2 WNW 1026,5 9 0,0
18.12.2018 19:00:00 -5,9 -6,4 3 2 6 4 ENE 1026,0 16 0,0
18.12.2018 18:00:00 -4,3 -4,8 2 1 7 4 NNE 1025,7 18 0,2
18.12.2018 17:00:00 -4,3 -4,8 3 2 6 3 NE 1025,6 4,0 0,3
18.12.2018 16:00:00 -4,7 -5,2 0 0 4 2 N 1025,3 1,0 0,3
18.12.2018 15:00:00 -4,7 -5,2 0 0 4 2 N 1025,1 1,2 0,9
18.12.2018 14:00:00 -4,8 -5,5 3 1 6 3 ENE 1025,1 2,3 0,3
18.12.2018 13:00:00 -4,9 -5,6 2 1 9 5 N 1025,0 22 0,0
18.12.2018 12:00:00 -5,1 -5,9 4 2 8 5 NNE 1025,0 19 0,0
18.12.2018 11:00:00 -4,8 -5,5 5 3 13 7 E 1025,0 13 0,0
18.12.2018 10:00:00 -5,0 -5,7 3 2 6 3 NW 1024,5 35 0,0
18.12.2018 09:00:00 -5,0 -5,7 0 0 10 6 N 1024,2 27 0,0
18.12.2018 08:00:00 -4,9 -5,4 0 0 8 5 N 1023,6 28 0,0
18.12.2018 07:00:00 -5,0 -5,5 0 0 6 4 N 1023,6 28 0,0
18.12.2018 06:00:00 -4,9 -5,6 4 2 7 4 NE 1023,3 6 0,0
18.12.2018 05:00:00 -4,9 -5,6 3 2 9 5 ENE 1022,8 8 0,1
18.12.2018 04:00:00 -4,9 -5,4 4 2 10 5 NE 1022,5 6 0,1
18.12.2018 03:00:00 -4,9 -5,6 4 2 7 4 NE 1022,3 10 0,0
18.12.2018 02:00:00 -4,9 -5,6 4 2 9 5 ENE 1022,0 26 0,0
18.12.2018 01:00:00 -4,9 -5,6 3 2 9 5 NNE 1022,0 14 0,0
18.12.2018 00:00:00 -5,0 -5,5 4 2 8 5 NE 1021,8 25 0,0
17.12.2018 23:00:00 -5,1 -5,6 3 2 8 4 NNE 1021,4 18 0,0
17.12.2018 22:00:00 -5,0 -5,5 0 0 9 5 N 1021,2 8 0,0
17.12.2018 21:00:00 -5,0 -5,5 5 3 9 5 NE 1021,2 6 0,0
17.12.2018 20:00:00 -5,3 -5,8 4 2 8 5 NE 1020,7 17 0,0
17.12.2018 19:00:00 -5,6 -6,1 3 1 7 4 NNE 1020,5 35 0,0
17.12.2018 18:00:00 -5,5 -6,2 4 2 11 6 ENE 1020,1 23 0,0
17.12.2018 17:00:00 -5,8 -6,5 3 1 8 5 NNE 1019,9 38 0,1
17.12.2018 16:00:00 -5,9 -6,6 3 1 7 4 NNE 1019,8 11 0,1
17.12.2018 15:00:00 -6,1 -6,8 4 2 8 4 NE 1019,7 13 0,0
17.12.2018 14:00:00 -6,2 -6,9 3 2 8 4 NE 1019,7 6 0,1
17.12.2018 13:00:00 -6,3 -7,0 4 2 7 4 NE 1019,9 2,9 0,2
17.12.2018 12:00:00 -6,4 -7,1 3 2 6 3 NE 1020,0 4,6 0,1
17.12.2018 11:00:00 -6,2 -6,9 3 1 6 3 NE 1020,4 4,6 0,1
17.12.2018 10:00:00 -6,1 -6,8 4 2 7 4 ENE 1020,5 4,6 0,2
17.12.2018 09:00:00 -5,9 -6,4 0 0 8 4 N 1020,6 1,3 0,9
17.12.2018 08:00:00 -5,7 -6,4 5 3 9 5 E 1020,6 1,4 1,0
17.12.2018 07:00:00 -5,3 -5,9 4 2 11 6 E 1020,7 1,3 0,9
17.12.2018 06:00:00 -5,0 -5,4 3 2 8 4 ENE 1020,7 2,2 0,2
17.12.2018 05:00:00 -4,7 -5,1 2 1 5 3 ENE 1021,2 32 0,0
17.12.2018 04:00:00 -4,6 -5,0 - - 4 2 N 1022,1 27 0,0
17.12.2018 03:00:00 -4,5 -4,9 - - 4 2 N 1022,9 22 0,0
17.12.2018 02:00:00 -5,5 -6,0 - - 5 3 N 1023,4 20 0,0
17.12.2018 01:00:00 -5,6 -6,0 - - 2 1 N 1024,2 21 0,0
17.12.2018 00:00:00 -6,4 -6,8 - - 2 1 N 1024,5 13 0,0
16.12.2018 23:00:00 -7,3 -8,0 - - 0 0 N 1024,9 14 0,0
16.12.2018 22:00:00 -7,8 -8,6 - - 1 0 N 1025,2 30 0,0
16.12.2018 21:00:00 -8,2 -9,0 - - 1 1 N 1025,4 24 0,0
16.12.2018 20:00:00 -8,3 -9,1 - - 1 0 N 1025,5 33 0,0
16.12.2018 19:00:00 -8,6 -9,4 - - 1 0 N 1025,9 - 0,0
16.12.2018 18:00:00 -9,4 -10,3 - - 1 1 N 1026,2 25 0,0
16.12.2018 17:00:00 -10,5 -11,5 - - 1 1 N 1026,3 35 0,0
16.12.2018 16:00:00 -11,4 -12,6 - - 1 1 N 1026,5 42 0,0
16.12.2018 15:00:00 -12,6 -13,9 - - 0 0 N 1027,2 34 0,0
16.12.2018 14:00:00 -13,6 -15,0 - - 1 1 N 1027,7 24 0,0
16.12.2018 13:00:00 -14,8 -16,3 - - 1 1 N 1028,6 21 0,0
16.12.2018 12:00:00 -16,6 -18,3 - - 0 0 N 1029,2 23 0,0
16.12.2018 11:00:00 -19,7 -21,7 - - 0 0 N 1030,0 33 0,0
16.12.2018 10:00:00 -19,2 -21,4 - - 0 0 N 1030,0 21 0,0
16.12.2018 09:00:00 -19,6 -21,6 - - 0 0 N 1030,3 21 0,0
16.12.2018 08:00:00 -21,8 -24,0 - - 1 0 N 1030,8 21 0,0
16.12.2018 07:00:00 -24,8 -27,2 - - 0 0 N 1030,9 - 0,0
16.12.2018 06:00:00 -25,5 -28,1 - - 0 0 N 1031,2 19 0,0
16.12.2018 05:00:00 -28,2 -31,0 - - 0 0 N 1031,8 15 0,0
16.12.2018 04:00:00 -29,0 -32,0 - - 1 0 N 1032,5 6 0,0
16.12.2018 03:00:00 -29,0 -31,9 - - 1 0 N 1032,9 15 0,0
16.12.2018 02:00:00 -29,0 -31,9 - - 0 0 N 1033,0 47 0,0
16.12.2018 01:00:00 -29,3 -32,3 - - 1 0 N 1033,3 21 0,0
16.12.2018 00:00:00 -29,4 -32,4 - - 0 0 N 1033,8 39 0,0
15.12.2018 23:00:00 -29,5 -32,5 - - 0 0 N 1034,4 35 0,0
15.12.2018 22:00:00 -29,3 -32,3 - - 0 0 N 1034,3 40 0,0
15.12.2018 21:00:00 -29,6 -32,6 - - 0 0 N 1034,7 39 0,0
15.12.2018 20:00:00 -29,8 -32,8 - - 0 0 N 1034,9 21 0,0
15.12.2018 19:00:00 -29,8 -32,8 - - 0 0 N 1035,1 36 0,0
15.12.2018 18:00:00 -29,8 -32,8 - - 1 1 N 1035,2 42 0,0
15.12.2018 17:00:00 -29,6 -32,7 - - 0 0 N 1035,0 50 0,0
15.12.2018 16:00:00 -29,2 -32,1 - - 1 1 N 1035,3 39 0,0
15.12.2018 15:00:00 -28,9 -31,8 - - 0 0 N 1035,4 32 0,0
15.12.2018 14:00:00 -28,5 -31,4 - - 0 0 N 1035,6 17 0,0
15.12.2018 13:00:00 -28,0 -30,9 - - 0 0 N 1035,5 31 0,0
15.12.2018 12:00:00 -29,0 -31,9 - - 0 0 N 1035,7 40 0,0
15.12.2018 11:00:00 -30,2 -33,2 - - 0 0 N 1035,8 39 0,0
15.12.2018 10:00:00 -30,4 -33,4 - - 0 0 N 1035,8 50 0,0
15.12.2018 09:00:00 -30,6 -33,7 - - 0 0 N 1035,5 50 0,0
15.12.2018 08:00:00 -30,5 -33,6 - - 0 0 N 1035,4 50 0,0
15.12.2018 07:00:00 -30,3 -33,3 - - 0 0 N 1035,3 50 0,0
15.12.2018 06:00:00 -29,8 -32,8 - - 0 0 N 1035,3 50 0,0
15.12.2018 05:00:00 -29,3 -32,3 - - 0 0 N 1035,1 50 0,0
15.12.2018 04:00:00 -28,9 -31,8 - - 0 0 N 1034,9 50 0,0
15.12.2018 03:00:00 -28,4 -31,3 - - 0 0 N 1034,9 50 0,0
15.12.2018 02:00:00 -28,1 -31,0 - - 1 0 N 1035,0 50 0,0
15.12.2018 01:00:00 -27,9 -30,7 - - 0 0 N 1035,0 50 0,0
15.12.2018 00:00:00 -27,8 -30,6 - - 1 0 N 1034,9 50 0,0
14.12.2018 23:00:00 -27,9 -30,8 - - 1 0 N 1035,3 46 0,0
14.12.2018 22:00:00 -27,7 -30,5 - - 0 0 N 1035,3 50 0,0
14.12.2018 21:00:00 -27,9 -30,7 - - 0 0 N 1035,3 17 0,0
14.12.2018 20:00:00 -27,7 -30,5 - - 0 0 N 1035,0 40 0,0
14.12.2018 19:00:00 -27,3 -30,1 - - 0 0 N 1035,0 30 0,0
14.12.2018 18:00:00 -27,2 -30,0 - - 0 0 N 1034,8 50 0,0
14.12.2018 17:00:00 -27,1 -29,9 - - 0 0 N 1034,9 50 0,0
14.12.2018 16:00:00 -26,9 -29,7 - - 1 1 N 1035,0 50 0,0
14.12.2018 15:00:00 -26,3 -29,0 - - 0 0 N 1034,9 36 0,0
14.12.2018 14:00:00 -25,8 -28,5 - - 1 1 N 1035,0 50 0,0
14.12.2018 13:00:00 -25,3 -27,9 - - 0 0 N 1034,8 21 0,0
14.12.2018 12:00:00 -25,6 -28,2 - - 1 0 N 1035,1 50 0,0
14.12.2018 11:00:00 -26,4 -29,1 - - 1 0 N 1035,2 47 0,0
14.12.2018 10:00:00 -26,9 -29,6 - - 1 0 N 1035,0 47 0,0
14.12.2018 09:00:00 -27,0 -29,8 - - 0 0 N 1034,8 48 0,0
14.12.2018 08:00:00 -26,6 -29,3 - - 0 0 N 1034,7 48 0,0
14.12.2018 07:00:00 -26,4 -29,1 - - 0 0 N 1034,6 50 0,0
14.12.2018 06:00:00 - -28,9 - - 0 0 N 1034,3 50 0,0
14.12.2018 05:00:00 - -28,7 - - 0 0 N 1034,3 50 0,0
14.12.2018 04:00:00 -25,5 -28,1 - - 0 0 N 1034,5 20 0,0
14.12.2018 03:00:00 -24,7 -27,3 - - 0 0 N 1034,7 50 0,0
14.12.2018 02:00:00 -23,7 -26,0 - - 1 0 N 1035,0 25 0,0
14.12.2018 01:00:00 -23,5 -26,0 - - 1 0 N 1035,0 9 0,0
14.12.2018 00:00:00 -22,7 -24,9 - - 0 0 N 1034,7 3,4 0,0
13.12.2018 23:00:00 -22,0 -24,2 - - 1 1 N 1034,9 7 0,0
13.12.2018 22:00:00 -22,1 -24,3 - - 1 1 N 1035,0 8 0,0
13.12.2018 21:00:00 -22,0 -24,2 - - 2 1 N 1035,0 2,3 0,0
13.12.2018 20:00:00 -21,9 -24,1 - - 1 1 N 1035,1 19 0,0
13.12.2018 19:00:00 -22,4 -24,6 - - 0 0 N 1035,0 12 0,0
13.12.2018 18:00:00 -23,2 -25,6 - - 0 0 N 1035,1 - 0,0
13.12.2018 17:00:00 -23,3 -25,6 - - 0 0 N 1035,3 8 0,0
13.12.2018 16:00:00 -22,8 -25,2 - - 0 0 N 1035,1 23 0,0
13.12.2018 15:00:00 -22,3 -24,5 - - 1 0 N 1035,0 3,5 0,0

tt = Température de l'air
td = dewpoint
ff = Vitesse du vent
fx = gusts
dd = Direction du vent
ppp = reduced air pressure
vv = visibility
rr = Quantités de précipitations

stations d'obs. à proximité